Regional Weather Roundup
Issued by NWS

Home | Current Version | Previous Version | Graphics & Text | Print | Product List | Glossary On
Versions: 1 2 3 4 5 6 7 8 9 10 11 12 13 14 15 16 17 18 19 20 21 22 23 24 25 26 27 28 29 30 31 32 33 34 35 36 37 38 39 40 41 42 43 44 45 46 47 48 49 50
000
ASUS43 KDTX 241301
RWRMI
MICHIGAN HOURLY REGIONAL WEATHER ROUNDUP
NATIONAL WEATHER SERVICE DETROIT/PONTIAC MI
900 AM EDT MON APR 24 2017

NOTE: "FAIR" INDICATES FEW OR NO CLOUDS BELOW 12,000 FEET WITH NO
SIGNIFICANT WEATHER AND/OR OBSTRUCTION TO VISIBILITY.

MIZ047>049-052>055-059>063-066>070-074>076-081>083-241400-
SOUTHEAST LOWER MICHIGAN

CITY           SKY/WX    TMP DP  RH WIND       PRES   REMARKS
ADRIAN         SUNNY     49  40  71 E8        30.07F
ALMA           SUNNY     45  38  78 NE7       30.11S
ANN ARBOR      SUNNY     50  40  68 NE6       30.08S
BAD AXE        SUNNY     47  39  72 E5        30.12S
CARO           SUNNY     46  38  75 E5        30.10S
DETROIT CITY   SUNNY     49  42  77 NE7       30.09S
DETROIT        MOSUNNY   49  40  71 NE9       30.09S
FLINT          SUNNY     47  39  74 E6        30.10S
GROSSE ILE     SUNNY     48  43  81 NE6       30.07S
HILLSDALE      SUNNY     50  34  53 E7        30.05S
HOWELL         SUNNY     48  38  68 E5        30.08S

CITY           SKY/WX    TMP DP  RH WIND       PRES   REMARKS
JACKSON        SUNNY     51  37  58 E6        30.07S
LAMBERTVILLE   SUNNY     49  40  71 E7        30.06F
LANSING        SUNNY     47  38  71 E5        30.09S
LAPEER         FAIR      46  39  77 CALM      30.10S
MASON          SUNNY     47  40  78 CALM      30.08S
MONROE         SUNNY     48  41  76 NE8       30.07S
PONTIAC        SUNNY     51  39  63 E7        30.08S
PORT HOPE        N/A     41  38  89 E9        30.12R
PORT HURON     SUNNY     48  39  71 E6        30.11S
TRI CITIES     SUNNY     46  39  76 E8        30.11S
MIDLAND        FAIR      47  40  75 E8        30.10F
TROY           SUNNY     47  38  72 E8        30.11S
SAGINAW HB     SUNNY     43  36  75 E5        30.11S
$$
MIZ043>046-050>051-056>058-064>065-071>073-077>080-241400-
SOUTHWEST LOWER MICHIGAN

CITY           SKY/WX    TMP DP  RH WIND       PRES   REMARKS
BATTLE CREEK   SUNNY     50  39  66 E6        30.07R
BENTON HARBOR  SUNNY     54  38  54 E5        30.05R
BIG RAPIDS     SUNNY     44  36  72 SE9       30.09S
COLDWATER      SUNNY     51  32  48 E7        30.06R
FREMONT        FAIR      46  37  70 E7        30.08R
HOLLAND        SUNNY     48  41  76 E8        30.07R
GRAND RAPIDS   MOSUNNY   46  40  79 E10       30.08R
IONIA          FAIR      44  38  79 E8        30.08R
KALAMAZOO      SUNNY     51  40  65 CALM      30.07R
LUDINGTON      SUNNY     46  39  75 SE12      30.06S
MARSHALL       SUNNY     50  37  62 E3        30.06S
MOUNT PLEASANT SUNNY     43  37  79 NE6       30.10S
MUSKEGON       MOSUNNY   48  39  71 E10       30.07R
SOUTH HAVEN    SUNNY     50  42  75 E5        30.06R
$$
MIZ016>042-241400-
NORTHERN LOWER MICHIGAN

CITY           SKY/WX    TMP DP  RH WIND       PRES   REMARKS
ALPENA         PTSUNNY   39  34  82 SE12G21   30.16S WCI  32
BEAVER ISLAND  SUNNY     39  33  79 E13       30.09S WCI  31
BELLAIRE       SUNNY     45  32  60 SE6       30.09R
CADILLAC       SUNNY     44  33  65 SE9       30.08R
CHARLEVOIX     SUNNY     40  32  74 E9        30.12R WCI  34
FRANKFORT      SUNNY     47  32  55 SE8       30.05S
GAYLORD        SUNNY     40  31  70 SE10      30.10R WCI  33
GRAYLING       SUNNY     39  31  75 E6        30.11S WCI  34
HARBOR SPRINGS MOSUNNY   37  32  84 E14G21    30.11R WCI  28
HOUGHTON LAKE  SUNNY     44  34  67 SE8       30.10S
MANISTEE       SUNNY     46  35  65 SE8       30.06S
OSCODA         SUNNY     42  35  76 E7        30.15S
PELLSTON       CLOUDY    38  31  76 E14       30.13R WCI  30
ROGERS CITY    SUNNY     39  31  72 SE14      30.16F WCI  31
TRAVERSE CITY  SUNNY     46  30  53 S7        30.07R
$$
MIZ007>008-015-241400-
EASTERN UPPER MICHIGAN

CITY           SKY/WX    TMP DP  RH WIND       PRES   REMARKS
KINROSS        SUNNY     36  25  64 E21       30.16R WCI  25
MACKINAC ISLAN SUNNY     36  29  78 E15G26    30.15R WCI  26
NEWBERRY       SUNNY     35  29  76 E9        30.12S WCI  28
S. S. MARIE    SUNNY     38  22  52 E14G22    30.17R WCI  30
MUNISING         N/A     35  27  72 MISG      30.10S
$$
MIZ004>006-011>014-085-241400-
CENTRAL UPPER MICHIGAN

CITY           SKY/WX    TMP DP  RH WIND       PRES   REMARKS
MANISTIQUE     MOSUNNY   39  34  82 E10G16    30.09R WCI  32
ESCANABA       MOSUNNY   36  30  79 NE6       30.08F WCI  31
MENOMINEE      MOSUNNY   39  32  76 E9        30.07S WCI  33
SAWYER-GWINN   SUNNY     30  25  80 E6        30.07S WCI  24
$$
MIZ001>003-009>011-084-241400-
WESTERN UPPER MICHIGAN

CITY           SKY/WX    TMP DP  RH WIND       PRES   REMARKS
IRON MOUNTAIN  MOSUNNY   32  24  72 E6        30.04S WCI  26
HOUGHTON       CLOUDY    33  25  72 E16G28    30.04F WCI  23
COPPER HARBOR    N/A     35  27  72 S9G18     30.09F WCI  28
IRONWOOD       CLOUDY    36  23  59 SE9       29.94F WCI  29
$$

ABBREVIATIONS USED IN REMARKS
   TC - TEMPERATURE IN CELSIUS
  WCI - WIND CHILL INDEX
   HX - HEAT INDEX
  VSB - VISIBILITY




USA.gov is the U.S. government's official web portal to all federal, state and local government web resources and services.